Regional Weather Roundup
Issued by NWS

Home | Current Version | Previous Version | Text Only | Print | Product List | Glossary Off
Versions: 1 2 3 4 5 6 7 8 9 10 11 12 13 14 15 16 17 18 19 20 21 22 23 24 25 26 27 28 29 30 31 32 33 34 35 36 37 38 39 40 41 42 43 44 45 46 47 48 49 50

000
ASUS43 KTOP 021008
RWRKS

WEATHER ROUNDUP FOR KANSAS
NATIONAL WEATHER SERVICE GOODLAND KS
500 AM CDT THU JUL 02 2015

NOTE:  "FAIR" INDICATES FEW OR NO CLOUDS BELOW 12,000 FEET WITH NO
SIGNIFICANT WEATHER AND/OR OBSTRUCTIONS TO VISIBILITY.

KSZ001>006-013>018-027>032-041>047-021100-
NORTHWEST KANSAS

CITY           SKY/WX    TMP DP  RH WIND       PRES   REMARKS
GOODLAND       MOCLDY    65  59  81 W5        30.04R
HAYS           CLOUDY    72  64  78 NE6       29.95R
HILL CITY      CLOUDY    74  66  76 E5        29.96R
RUSSELL        MOCLDY    71  69  93 CALM      29.92R
$$

KSZ061>065-074>080-084>089-021100-
SOUTHWEST KANSAS

CITY           SKY/WX    TMP DP  RH WIND       PRES   REMARKS
DODGE CITY     CLOUDY    70  58  65 NW6       29.93R
ELKHART          N/A     73  60  63 W6          N/A
GARDEN CITY    CLOUDY    72  59  63 N10       29.95S
GREAT BEND     MOCLDY    73  66  78 NE7       29.92S
LIBERAL        CLOUDY    73  59  60 NW10      29.96
$$

KSZ066>073-081>083-090>101-021100-
SOUTHEAST KANSAS

CITY           SKY/WX    TMP DP  RH WIND       PRES   REMARKS
CHANUTE        PTCLDY    71  68  90 E3        29.79R
COFFEYVILLE    PTCLDY    79  69  71 SW6       29.78R
HUTCHINSON     PTCLDY    71  68  90 NE3       29.88R
MEDICINE LODGE   N/A     73  64  73 N5        29.87R
NEWTON         PTCLDY    72  68  88 NE6       29.89R
PARSONS        PTCLDY    75  70  84 S5        29.79S
WICHITA INTL   MOCLDY    77  72  84 CALM      29.85R
WICHITA JABRA  PTCLDY    73  71  93 N3        29.86R
WICHITA MCCONL PTCLDY    74  72  93 NW2       29.86R
WINFIELD       MOCLDY    73  69  87 CALM      29.84R
$$

KSZ007>012-019>026-033>040-048>060-102>105-021100-
NORTHEAST KANSAS

CITY           SKY/WX    TMP DP  RH WIND       PRES   REMARKS
CONCORDIA      CLOUDY    72  69  90 E5        29.91R
EMPORIA        CLEAR     71  69  93 N7        29.84R
LAWRENCE       PTCLDY    73  69  87 NE10      29.84S
MANHATTAN      LGT RAIN  75  71  87 NE8       29.88R
MARYSVILLE     CLOUDY    72  68  88 E5        29.89S
OLATHE IND     MOCLDY    72  69  90 NE13      29.84S
OLATHE EXE     CLOUDY    71  69  93 E14       29.83S
SALINA         MOCLDY    78  71  79 E7        29.88R
TOPEKA BILLARD CLOUDY    73  71  93 N6        29.85R
TOPEKA FORBES  MOCLDY    74  70  87 N7        29.85R
$$



USA.gov is the U.S. government's official web portal to all federal, state and local government web resources and services.